Location: Bridalveil Creek
(37.7188°N, 119.6532°W)
Time: 19:29:24
(UTC+00:00)

Daily predictions for brighter satellites

Satellite Brightness Start Highest point End
(mag) Time Altitude Azimuth Time Altitude Azimuth Time Altitude Azimuth
SJ 16-02 2.5 12:22:31 36° SSE 12:22:31 36° SSE 12:25:07 10° SSE
SL-16 R/B 2.3 12:24:24 60° N 12:24:24 60° N 12:29:11 10° NNE
Aureole 3 3.9 12:29:01 10° S 12:34:55 80° W 12:39:49 10° N
Cosmos 304 Rocket 3.5 12:39:00 80° W 12:39:06 80° WSW 12:43:50 10° SSE
Cosmos 371 Rocket 3.1 12:39:48 73° NW 12:40:14 82° WSW 12:45:03 10° SSE
Cosmos 2346 Rocket 4.3 12:38:08 10° SSW 12:44:13 69° W 12:50:17 10° N
Cosmos 2233 Rocket 4.0 12:42:19 26° NNW 12:45:45 56° W 12:51:47 10° SSW
Cosmos 1447 Rocket 4.4 12:42:32 10° SSW 12:48:45 67° W 12:55:03 10° N
Cosmos 1400 Rocket 4.0 12:47:14 12° N 12:50:24 37° ENE 12:53:48 10° SSE
Cosmos 2061 Rocket 4.0 12:46:14 10° NNW 12:52:12 56° W 12:58:13 10° SSW
Cosmos 1674 Rocket 3.9 12:52:42 10° S 12:57:04 67° E 13:01:28 10° NNE
Cosmos 1818 4.2 12:53:11 10° SSW 12:58:28 57° ESE 13:03:47 10° NE
H-2A R/B 3.5 13:00:05 15° S 13:00:53 16° SSE 13:03:51 10° SE
Cosmos 1452 Rocket 3.4 12:58:34 10° SSW 13:03:47 90° WNW 13:09:03 10° NNE
Cosmos 1331 Rocket 3.9 13:05:03 10° SSW 13:10:13 61° WNW 13:15:25 10° N
Cosmos 1943 3.1 13:04:52 10° SSW 13:10:29 85° WNW 13:16:07 10° NNE
Cosmos 1850 Rocket 4.3 13:07:29 10° NNW 13:12:38 65° ENE 13:17:45 10° SSE
Chandra Rocket (1) 4.2 13:09:51 17° SW 13:13:16 32° S 13:25:39 10° ESE
Cosmos 2369 Rocket 2.1 13:08:25 12° NNW 13:13:51 87° WSW 13:19:32 10° SSE
NOAA 12 4.0 13:09:17 10° NNE 13:14:38 85° WNW 13:19:55 10° SSW
CZ-4 R/B 3.7 13:09:55 10° N 13:14:41 75° WNW 13:19:21 10° SSW
Cosmos 2297 3.6 13:09:28 11° NNW 13:14:56 88° WSW 13:20:33 10° SSE
Meteor 1-11 4.3 13:11:37 10° S 13:17:29 88° W 13:23:21 10° N
SWARM C 4.5 13:14:56 10° SSW 13:18:10 57° W 13:21:27 10° N
SWARM A 4.0 13:15:01 10° S 13:18:18 71° W 13:21:37 10° N
Cosmos 1378 Rocket 3.8 13:18:24 10° SSW 13:22:25 40° W 13:26:28 10° N
Cosmos 2221 Rocket 3.6 13:22:22 10° S 13:26:53 89° WNW 13:31:26 10° N
Cosmos 1656 Rocket 4.5 13:27:08 21° WNW 13:29:50 30° WSW 13:34:41 10° SSW
Cosmos 2151 Rocket 3.5 13:29:26 10° NNW 13:33:51 65° W 13:38:13 10° S
Cosmos 1072 Rocket 4.4 13:30:05 10° N 13:36:13 73° W 13:42:24 10° S
Lacrosse 5 rocket 2.3 13:33:59 11° NNW 13:36:46 30° NE 13:39:42 10° ESE
USA 229 DEB 4.4 13:34:44 18° W 13:37:43 26° NW 13:43:07 10° NNE
USA 229 4.4 13:34:54 18° W 13:37:56 27° NW 13:43:22 10° NNE
Lacrosse 4 Rocket 3.2 13:35:54 10° N 13:39:14 26° ENE 13:42:33 10° ESE
Okean 1 Rocket 2.9 13:36:42 10° N 13:41:00 88° W 13:45:18 10° S
Hubble Space Telescope 3.1 13:39:27 10° SSW 13:41:45 15° SSE 13:44:04 10° SE
Helios 1A Rocket 2.6 13:40:50 10° S 13:44:05 49° WSW 13:47:22 10° NNW
USA 267 3.9 13:39:05 10° NNE 13:44:51 34° NNW 13:50:18 11° W
Sich 1 Rocket 3.5 13:41:32 10° N 13:46:03 76° W 13:50:28 10° S
Cosmos 1484 Rocket 2.4 13:44:47 10° N 13:48:18 77° WNW 13:51:46 10° SSW
Cosmos 968 Rocket 3.9 13:43:44 10° NNW 13:48:40 43° WSW 13:53:34 10° S
COSMO-SKYMED 1 2.5 13:45:54 10° S 13:49:55 57° W 13:54:00 10° NNW
ATLAS 3B R/B 3.9 13:50:32 10° W 13:56:41 26° NW 14:03:04 10° NNE
CENTAUR R/B 3.5 13:48:56 10° NW 13:57:34 62° WSW 14:06:52 10° SSE
BREEZE-M DEB (TANK) 3.0 13:55:54 14° WNW 13:57:49 31° N 14:01:51 10° ENE
IRS-1D 4.4 13:54:48 10° NNW 13:58:46 25° WNW 14:02:44 10° WSW
Cosmos 292 Rocket 4.0 13:54:08 10° NNW 13:58:56 76° ENE 14:03:39 10° SSE
SL-8 R/B 3.6 13:54:14 10° WSW 13:59:01 82° NNW 14:03:47 10° NE
NOSS 2-2 (C) 4.0 13:57:27 10° NW 14:01:50 79° WSW 14:08:03 10° SSE
IGS 5A 3.3 13:58:11 10° N 14:02:09 82° WNW 14:06:07 10° SSW
SL-16 R/B 4.0 14:07:12 10° WNW 14:08:35 11° NW 14:09:58 10° NNW
Cosmos 1975 Rocket 3.3 14:04:25 10° S 14:08:39 75° E 14:12:57 10° N
Cosmos 1441 Rocket 3.3 14:06:51 10° SSW 14:09:59 38° WNW 14:13:07 10° N
Cosmos 1302 Rocket 4.4 14:06:34 10° SW 14:11:23 39° WNW 14:16:14 10° N
Cosmos 1315 Rocket 3.9 14:09:14 10° N 14:12:56 46° ENE 14:16:37 10° SSE
Cosmos 1992 Rocket 4.0 14:10:41 10° SSW 14:15:51 69° WNW 14:21:04 10° NNE
USA 234 3.4 14:12:13 10° SE 14:18:47 88° SW 14:25:23 10° NW
